Regional Weather Roundup
Issued by NWS Cleveland, OH

Home | Current Version | Previous Version | Text Only | Print | Product List | Glossary Off
Versions: 1 2 3 4 5 6 7 8 9 10 11 12 13 14 15 16 17 18 19 20 21 22 23 24 25 26 27 28 29 30 31 32 33 34 35 36 37 38 39 40 41 42 43 44 45 46 47 48 49 50

000
ASUS41 KCLE 201810
RWRCLE
OHIO REGIONAL WEATHER ROUNDUP
NATIONAL WEATHER SERVICE CLEVELAND, OH
100 PM EST MON NOV 20 2017

NOTE: "FAIR" INDICATES FEW OR NO CLOUDS BELOW 12,000 FEET WITH NO
SIGNIFICANT WEATHER AND/OR OBSTRUCTIONS TO VISIBILITY.

OHZ001>008-015>018-024>027-034-035-043-044-201900-
   NORTHWEST OHIO

CITY           SKY/WX    TMP DP  RH WIND       PRES   REMARKS
DEFIANCE       SUNNY     44  27  51 SW17G28   30.00F
FINDLAY        SUNNY     43  28  55 S17G26    30.03F
TOLEDO EXPRESS SUNNY     46  28  49 SW15G26   29.98F
TOLEDO EXEC    SUNNY     44  27  51 SW21G26   30.00F
LIMA           NOT AVBL
$$

OHZ009>014-019>023-028>033-038-089-201900-
   NORTHEAST OHIO

CITY           SKY/WX    TMP DP  RH WIND       PRES   REMARKS
CLE-HOPKINS    MOSUNNY   44  27  51 S16       30.05F
CLE-LAKEFRONT  SUNNY     45  24  43 S15G24    30.02F
CUY CO. ARPT   MOSUNNY   45  27  49 S17G23    30.03F
LORAIN-ELYRIA  SUNNY     42  22  44 SW21G28   30.04F
ASHTABULA      SUNNY     39  27  62 SW16      30.04F
AKRON-CANTON   MOSUNNY   41  26  55 SW16      30.07F
WOOSTER        SUNNY     41  24  51 SW17G25   30.06F
MANSFIELD      SUNNY     42  25  50 SW18G26   30.05F
YOUNGSTOWN     PTSUNNY   40  25  55 SW10G21   30.05F
$$

OHZ042-051>053-060>062-070>072-077>081-201900-
  SOUTHWEST OHIO

CITY           SKY/WX    TMP DP  RH WIND       PRES   REMARKS
CINC-COVINGTON MOSUNNY   44  25  47 S12       30.15F
CINC-LUNKEN    SUNNY     45  27  49 S9        30.18F
HAMILTON       SUNNY     46  25  43 S8        30.15F
DAYTON         MOSUNNY   42  26  53 S20       30.10F
WRIGHT-PAT AFB MOSUNNY   41  21  45 SW7       30.12F
DAYTON GENERAL SUNNY     42  24  49 SW17      30.11F
WILMINGTON     SUNNY     42  28  57 S16       30.12F
$$

OHZ036-037-039>041-045>050-054>059-063>069-073>076-082>088-201900-
  CENTRAL AND SOUTHEAST OHIO

CITY           SKY/WX    TMP DP  RH WIND       PRES   REMARKS
COLUMBUS       MOSUNNY   41  25  53 S13       30.14F
OSU AIRPORT    SUNNY     41  27  57 S14       30.11F
BOLTON FIELD   SUNNY     39  27  60 S15       30.14F
RICKENBACK AFB SUNNY     40  25  54 SW14G21   30.14F
NEWARK         SUNNY     42  24  49 SW13      30.13F
MARION         SUNNY     41  27  57 S21       30.08F
LANCASTER      SUNNY     41  27  57 S10       30.15F
ZANESVILLE     SUNNY     42  23  46 SW12      30.14F
NEW PHILLY     NOT AVBL
$$



USA.gov is the U.S. government's official web portal to all federal, state and local government web resources and services.